Bedford, Massachusetts, United States (01730)
Lat: 42.49N, Lon: 71.28W
Wx Zone: MAZ005
Local Info
Past Weather Observations for Wednesday, May 20, 2015

NOTE: This archive is for the closest National Weather Service station to Bedford. Information may differ from the station used for current weather conditions.

Click here for Long-term Archive

Time Weather Temperature Dewpoint Humidity Pressure Winds Precip Visibility
23:56
Clear
45°F / 7°C 36°F / 2°C 71% 29.92 in
(1013 mb)
SSW 6.9 mph
(SSW 11 kph)
- 10SM
22:56
Clear
46°F / 8°C 36°F / 2°C 66% 29.92 in
(1013 mb)
SSW 8.1 mph
(SSW 13 kph)
- 10SM
21:56
Clear
46°F / 8°C 34°F / 1°C 62% 29.89 in
(1012 mb)
W 6.9 mph
(W 11 kph)
- 10SM
20:56
Clear
48°F / 9°C 34°F / 1°C 58% 29.92 in
(1013 mb)
SW 5.8 mph
(SW 9 kph)
- 10SM
19:56
Clear
50°F / 10°C 32°F / 0°C 50% 29.89 in
(1012 mb)
NW 6.9 mph
(NW 11 kph)
- 10SM
18:56
Clear
54°F / 12°C 32°F / 0°C 44% 29.86 in
(1011 mb)
NW 9.2 mph
(NW 15 kph)
- 10SM
17:56
Clear
55°F / 13°C 34°F / 1°C 44% 29.83 in
(1010 mb)
NNW 13.8 mph
(NNW 22 kph)
- 10SM
16:56
Mostly Cloudy
57°F / 14°C 34°F / 1°C 41% 29.83 in
(1010 mb)
NW 24.2 mph
(NW 39 kph)
- 10SM
15:56
Mostly Cloudy
57°F / 14°C 36°F / 2°C 44% 29.8 in
(1009 mb)
NW 11.5 mph
(NW 19 kph)
- 10SM
14:56
Mostly Cloudy
57°F / 14°C 36°F / 2°C 44% 29.77 in
(1008 mb)
W 18.4 mph
(W 30 kph)
- 10SM
13:56
Mostly Cloudy
61°F / 16°C 36°F / 2°C 39% 29.77 in
(1008 mb)
NW 20.7 mph
(NW 33 kph)
- 10SM
12:56
Partly Cloudy
63°F / 17°C 37°F / 3°C 39% 29.74 in
(1007 mb)
NW 21.9 mph
(NW 35 kph)
- 10SM
11:56
Partly Cloudy
61°F / 16°C 39°F / 4°C 45% 29.74 in
(1007 mb)
WNW 19.6 mph
(WNW 32 kph)
- 10SM
10:56
Mostly Cloudy
61°F / 16°C 39°F / 4°C 45% 29.74 in
(1007 mb)
WNW 17.3 mph
(WNW 28 kph)
- 10SM
09:56
Partly Cloudy
63°F / 17°C 43°F / 6°C 49% 29.74 in
(1007 mb)
WNW 13.8 mph
(WNW 22 kph)
- 10SM
08:56
Mostly Cloudy
61°F / 16°C 43°F / 6°C 52% 29.74 in
(1007 mb)
W 13.8 mph
(W 22 kph)
- 10SM
07:56
Partly Cloudy
61°F / 16°C 43°F / 6°C 52% 29.74 in
(1007 mb)
WNW 12.7 mph
(WNW 20 kph)
- 10SM
06:56
Partly Cloudy
59°F / 15°C 43°F / 6°C 55% 29.74 in
(1007 mb)
W 13.8 mph
(W 22 kph)
- 10SM
05:56
Clear
55°F / 13°C 43°F / 6°C 63% 29.74 in
(1007 mb)
W 8.1 mph
(W 13 kph)
- 10SM
04:56
Clear
54°F / 12°C 43°F / 6°C 67% 29.74 in
(1007 mb)
NW 10.4 mph
(NW 17 kph)
- 10SM
03:56
Clear
54°F / 12°C 43°F / 6°C 67% 29.74 in
(1007 mb)
WNW 10.4 mph
(WNW 17 kph)
- 10SM
02:56
Clear
57°F / 14°C 45°F / 7°C 63% 29.71 in
(1006 mb)
WNW 9.2 mph
(WNW 15 kph)
- 10SM
01:56
Partly Cloudy
61°F / 16°C 46°F / 8°C 59% 29.71 in
(1006 mb)
WNW 12.7 mph
(WNW 20 kph)
- 10SM
00:56
Clear
61°F / 16°C 54°F / 12°C 77% 29.71 in
(1006 mb)
W 8.1 mph
(W 13 kph)
- 10SM
Time Weather Temperature Dewpoint Humidity Pressure Winds Precip Visibility


Weather for websites

WeatherForYou.com, LLC is not responsible for any damages or problems caused by this service. Current weather conditions are obtained from the closest station including government and personal stations which may have varying degrees of accuracy. Weather forecasts are derived from the NOAA NDFD. Like all things, this site belongs to Jesus Christ... He just trusts us to maintain it. If you have any questions or comments email webmaster@weatherforyou.com

Copyright © 2015, WeatherForYou.com LLC. All rights reserved.